Location: Bern�tre
(50.1974°N, 2.0915°E)
Time: 05:58:48
(UTC+00:00)

Resurs 01 Rocket - Pass Details

Date: 18 September 2020
Orbit: 633 x 645 km, 98.0° (Epoch: 22 October)

Event Time Altitude Azimuth Distance (km) Brightness Sun altitude
Exits shadow 20:56:51 39° 244° (WSW) 975 2.6 -27.1°
Maximum altitude 20:57:23 40° 262° (W) 948 2.7 -27.1°
Drops below altitude 10° 21:01:36 10° 333° (NNW) 2,053 5.1 -27.6°
Sets 21:03:57 0° 341° (NNW) 2,967 6.0 -27.9°
